Regional Weather Roundup
Issued by NWS Green Bay, WI

Home | Current Version | Previous Version | Text Only | Print | Product List | Glossary On
Versions: 1 2 3 4 5 6 7 8 9 10 11 12 13 14 15 16 17 18 19 20 21 22 23 24 25 26 27 28 29 30 31 32 33 34 35 36 37 38 39 40 41 42 43 44 45 46 47 48 49 50
000
ASUS43 KGRB 050100
RWRGRB

NORTH-CENTRAL AND NORTHEAST WISCONSIN REGIONAL WEATHER ROUNDUP
NATIONAL WEATHER SERVICE GREEN BAY WI
800 PM CDT WED MAY 04 2016

WIZ005-009-010>012-018-019-050200-
NORTH CENTRAL WISCONSIN

CITY           SKY/WX    TMP DP  RH WIND       PRES   REMARKS
IRONWOOD         N/A     46  30  53 N3        29.96R
MANITOWISH WTR NOT AVBL
ARBOR VITAE    NOT AVBL
EAGLE RIVER    NOT AVBL
LAND O LAKES   NOT AVBL
RHINELANDER    CLEAR     46  30  53 N8G18     29.96R
PHILLIPS       CLEAR     48  31  50 N9        29.96S
ANTIGO         NOT AVBL
TOMAHAWK       NOT AVBL
MERRILL        NOT AVBL
$$

WIZ013-073-050200-
NORTHEAST WISCONSIN

CITY           SKY/WX    TMP DP  RH WIND       PRES   REMARKS
IRON MOUNTAIN  CLOUDY    42  30  62 N13       29.95R
MARINETTE      CLEAR     43  30  61 N12       29.95R
$$

WIZ017-030-035>037-045-050200-
CENTRAL WISCONSIN

CITY           SKY/WX    TMP DP  RH WIND       PRES   REMARKS
MEDFORD        NOT AVBL
WAUSAU         CLEAR     51  31  46 VRB6      29.92R
MOSINEE        CLEAR     48  30  49 N13G18    29.94R
MARSHFIELD     CLEAR     52  30  43 N12G18    29.92R
WISC RAPIDS    CLEAR     52  29  41 NE17G23   29.94R
STEVENS POINT  NOT AVBL
WAUPACA        NOT AVBL
SHAWANO        CLEAR     50  33  53 N15G21    29.92R
CLINTONVILLE   NOT AVBL
WAUTOMA        NOT AVBL
$$

WIZ038-039-048-051-050200-
FOX VALLEY

CITY           SKY/WX    TMP DP  RH WIND       PRES   REMARKS
NWS GREEN BAY  MOCLDY    47  34  60 N16       29.91R
APPLETON       PTCLDY    48  32  53 NE16      29.89R
OSHKOSH        PTCLDY    49  35  58 N14       29.89R
FOND DU LAC    PTCLDY    48  36  63 NE13      29.89R
$$

WIZ022-050-052-050200-
EAST CENTRAL WISCONSIN

CITY           SKY/WX    TMP DP  RH WIND       PRES   REMARKS
EPHRAIM        NOT AVBL
STURGEON BAY   CLEAR     43  30  61 N17G25    29.94R
MANITOWOC      NOT AVBL
SHEBOYGAN      CLOUDY    42  35  76 NE12      29.89R
$$

LMZ563-521-522-541>543-050200-
LAKESHORE

STATION/POSITION TIME  TEMP    WIND        PRES    VSBY  WAVE
                       AIR SEA DIR/SP/G                  HT/PER
                 (UTC) (F)     (DEG/KT/KT) (MB)    (MI)  (FT/S)
SHEBOYGAN LKSHOR 0000   42      30/ 24/ 26 1012.0R
KEWAUNEE LKSHORE 0000   46                 1011.2R
NORTHPORT PIER   0020   41     340/ 21/ 25 1012.9R
N MID LAKE BUOY  2350   41 39  330/ 16/ 19 1011.8R         4/ 5
CHAMBERS ISLAND  0000   44     340/ 15/ 20 1013.2R
MENOMINEE LKSHOR 0000   45                 1011.8R
$$




USA.gov is the U.S. government's official web portal to all federal, state and local government web resources and services.